[[{"header":{"parameterUnit":"m.s-1","parameterCategory":1,"la1":30.2991,"la2":30.254,"lo1":-89.0895,"lo2":-89.0444,"dy":0.0017,"dx":0.0017,"nx":28,"ny":28,"refTime":"2024-10-18T03:00:00:Z","depth":0,"parameterNumber":2,"parameterNumberName":"U-component_of_WINDS"},"data":[0,0,0,0,0,0,0,0,0,0,0,0,0,0,0,0,0,0,0,0,0,0,0,0,0,0,0,0,0,0,0,0,0,0,0,0,0,0,0,0,0,0,0,0,0,0,0,0,0,0,0,0,0,0,0,0,0,0,-2.1722,-2.1722,0,-2.1706,-2.1706,-2.1705,-2.1655,-2.1654,-2.1653,-2.1652,-2.1637,-2.1637,-2.1638,0,0,0,0,0,0,0,0,0,0,0,0,0,-2.171,-2.1711,-2.1722,-2.1722,-2.1721,-2.1706,-2.1706,-2.1705,-2.1655,-2.1654,-2.1653,-2.1651,-2.1636,-2.1637,-2.1638,0,0,0,0,0,0,0,0,0,0,0,0,0,-2.1707,-2.1711,-2.1722,-2.1695,-2.1692,-2.1706,-2.1705,-2.1705,-2.1656,-2.1654,-2.1652,-2.1651,-2.1636,-2.1637,-2.1638,-2.1677,0,0,-2.1641,-2.1641,0,0,0,0,0,0,0,0,-2.1707,-2.1707,-2.1699,-2.1696,-2.1694,-2.1681,-2.1696,-2.1696,-2.1656,-2.1669,-2.1652,-2.165,-2.1653,-2.1652,-2.1653,-2.1677,-2.1676,-2.1641,-2.1642,-2.1642,-2.1642,0,0,0,0,0,0,0,-2.1708,-2.1708,-2.1715,-2.1699,-2.1696,-2.1683,-2.1681,-2.1696,-2.1671,-2.1668,-2.1664,-2.1663,-2.1651,-2.1652,-2.1652,-2.1676,-2.1641,-2.1642,-2.1642,-2.1643,-2.1732,-2.1733,0,0,0,0,0,0,-2.1711,-2.1708,-2.1716,-2.1715,-2.1696,-2.1685,-2.1682,-2.1687,-2.167,-2.1666,-2.1665,-2.1661,-2.1651,-2.1651,-2.1651,-2.1697,-2.1642,-2.1643,-2.1643,-2.173,-2.1732,-2.1734,0,0,0,0,0,0,-2.1711,-2.1713,-2.1717,-2.1711,-2.171,-2.1687,-2.1692,-2.1687,-2.1688,-2.1668,-2.1663,-2.167,-2.165,-2.165,-2.1671,-2.1696,-2.1643,-2.1644,-2.1728,-2.173,-2.1733,-2.1788,0,0,0,0,0,0,-2.1711,-2.1713,-2.1727,-2.1711,-2.1711,-2.1737,-2.1693,-2.1688,-2.169,-2.1685,-2.1672,-2.1668,-2.1649,-2.167,-2.1672,-2.1696,-2.1645,-2.1725,-2.1729,-2.1732,-2.1784,-2.1792,-2.1799,0,0,0,0,0,-2.1711,-2.1744,-2.1728,-2.173,-2.1728,-2.1738,-2.1738,-2.1714,-2.1692,-2.1706,-2.1693,-2.1668,-2.1693,-2.1673,-2.1675,-2.1699,-2.1724,-2.1728,-2.1732,-2.178,-2.179,-2.1799,0,0,0,0,0,0,-2.1764,-2.1741,-2.1724,-2.1752,-2.1747,-2.173,-2.1747,-2.1726,-2.1728,-2.1723,-2.1694,-2.1692,-2.1717,-2.171,-2.1688,-2.1737,-2.1704,-2.1709,-2.174,-2.175,-2.1757,-2.1759,-2.1646,0,0,0,0,0,-2.1778,-2.1788,-2.1768,-2.1795,-2.1793,-2.1771,-2.1774,-2.1756,-2.1751,-2.1748,-2.1737,-2.1732,-2.1739,-2.1744,-2.1749,-2.1782,-2.1779,-2.18,-2.1808,-2.1814,-2.1819,-2.1837,-2.1846,-2.1747,-2.1747,-2.1747,0,0,-2.1809,-2.1798,-2.1806,-2.1805,-2.1799,-2.181,-2.1769,-2.1782,-2.179,-2.175,-2.177,-2.1761,-2.1754,-2.1782,-2.1794,-2.1777,-2.1845,-2.1819,-2.1825,-2.1826,-2.1842,-2.1851,-2.1859,-2.175,-2.1749,-2.1749,0,0,-2.1871,-2.1863,-2.1885,-2.188,-2.1872,-2.1857,-2.1862,-2.1847,-2.184,-2.1859,-2.1829,-2.1838,-2.185,-2.1846,-2.1846,-2.1907,-2.1884,-2.1909,-2.195,-2.1968,-2.1975,-2.1982,-2.2004,-2.2013,-2.1914,-2.1914,-2.1914,0,-2.1911,-2.1925,-2.1899,-2.1914,-2.1915,-2.1879,-2.1901,-2.1897,-2.1891,-2.1893,-2.1874,-2.1888,-2.1881,-2.1908,-2.1923,-2.1923,-2.1929,-2.1911,-2.1976,-2.1983,-2.1989,-2.201,-2.2018,-2.1917,-2.1917,-2.1916,-2.1916,0,-2.1975,-2.1985,-2.2004,-2.1999,-2.2001,-2.202,-2.1997,-2.2003,-2.1985,-2.1972,-2.1992,-2.1982,-2.1985,-2.199,-2.1973,-2.2014,-2.2004,-2.1981,-2.1948,-2.2002,-2.2021,-2.2029,-2.1922,-2.192,-2.1919,-2.1919,0,0,-2.207,-2.2049,-2.2057,-2.2054,-2.2042,-2.205,-2.2067,-2.2069,-2.2075,-2.2072,-2.2086,-2.2097,-2.2076,-2.2076,-2.2058,-2.2073,-2.2123,-2.2048,-2.2048,-2.2063,-2.2169,-2.2187,-2.2196,-2.2107,-2.2109,-2.211,-2.217,0,-2.2129,-2.2156,-2.2133,-2.2166,-2.2176,-2.2141,-2.2156,-2.2151,-2.2139,-2.2147,-2.2134,-2.2142,-2.2113,-2.2113,-2.2126,-2.2114,-2.2144,-2.2109,-2.2121,-2.2122,-2.2124,-2.2206,-2.2225,-2.2282,-2.2177,-2.2178,-2.2179,0,-2.2201,-2.2201,-2.2235,-2.2221,-2.2224,-2.2238,-2.2238,-2.2245,-2.2238,-2.2229,-2.2229,-2.2207,-2.2223,-2.219,-2.2213,-2.219,-2.2193,-2.2188,-2.2189,-2.219,-2.2154,-2.221,-2.2299,-2.2308,-2.2191,-2.219,-2.2189,0,-2.2268,-2.2276,-2.2297,-2.2296,-2.228,-2.2291,-2.2285,-2.2277,-2.2279,-2.228,-2.2281,-2.2284,-2.2285,-2.2288,-2.2267,-2.2245,-2.2292,-2.2258,-2.2286,-2.2286,-2.2298,-2.2297,-2.239,-2.2299,-2.2299,-2.2299,-2.2298,0,-2.2337,-2.2359,-2.2327,-2.234,-2.2364,-2.2337,-2.2362,-2.2352,-2.2345,-2.2356,-2.2326,-2.2338,-2.2309,-2.2317,-2.2301,-2.2323,-2.2324,-2.2317,-2.2313,-2.232,-2.2321,-2.2322,-2.2318,-2.2301,-2.23,-2.23,-2.23,0,-2.2416,-2.2395,-2.2416,-2.2399,-2.2396,-2.2414,-2.24,-2.2412,-2.2398,-2.2412,-2.2414,-2.2393,-2.2401,-2.238,-2.2386,-2.2375,-2.2406,-2.2395,-2.2408,-2.2405,-2.2435,-2.2432,-2.2532,-2.2544,-2.2445,-2.2446,-2.2446,0,-2.2461,-2.2477,-2.2462,-2.2467,-2.2463,-2.2471,-2.2474,-2.2448,-2.2452,-2.2446,-2.2459,-2.2464,-2.2468,-2.2482,-2.2468,-2.2472,-2.2461,-2.2496,-2.2462,-2.2469,-2.2463,-2.2462,-2.2464,-2.2503,-2.2504,-2.2505,-2.2506,0,-2.2545,-2.2534,-2.2538,-2.254,-2.2544,-2.2544,-2.2541,-2.2547,-2.252,-2.2526,-2.2534,-2.2536,-2.2542,-2.2548,-2.2549,-2.2543,-2.2521,-2.2517,-2.2523,-2.2532,-2.2539,-2.2536,-2.2428,-2.2515,-2.2514,-2.2513,-2.2513,-2.2512,-2.2609,-2.2621,-2.2613,-2.2619,-2.2615,-2.2614,-2.2624,-2.2611,-2.2617,-2.2619,-2.2604,-2.2615,-2.2608,-2.2607,-2.2604,-2.2612,-2.2597,-2.2607,-2.2609,-2.2612,-2.2617,-2.2537,-2.2612,-2.2612,-2.2612,-2.2612,-2.2611,0,-2.2691,-2.2684,-2.269,-2.2688,-2.2693,-2.267,-2.2667,-2.2673,-2.2683,-2.2678,-2.2682,-2.2691,-2.2697,-2.2683,-2.2687,-2.2697,-2.2687,-2.2699,-2.2699,-2.2698,-2.2631,-2.2625,-2.2707,-2.2707,-2.2707,-2.2707,-2.2707,-2.2707,-2.2735,-2.2755,-2.2743,-2.2762,-2.2754,-2.2765,-2.2765,-2.2764,-2.276,-2.2772,-2.2776,-2.2767,-2.2759,-2.2762,-2.2766,-2.2762,-2.2765,-2.2781,-2.2774,-2.2712,-2.2702,-2.2693,-2.2688,-2.2782,-2.2782,-2.284,-2.2841,-2.2841]},{"header":{"parameterUnit":"m.s-1","parameterCategory":1,"la1":30.2991,"la2":30.254,"lo1":-89.0895,"lo2":-89.0444,"dy":0.0017,"dx":0.0017,"nx":28,"ny":28,"refTime":"2024-10-18T03:00:00:Z","depth":0,"parameterNumber":3,"parameterNumberName":"V-component_of_WINDS"},"data":[0,0,0,0,0,0,0,0,0,0,0,0,0,0,0,0,0,0,0,0,0,0,0,0,0,0,0,0,0,0,0,0,0,0,0,0,0,0,0,0,0,0,0,0,0,0,0,0,0,0,0,0,0,0,0,0,0,0,-2.5991,-2.5991,0,-2.6001,-2.6002,-2.6002,-2.599,-2.5989,-2.5989,-2.5988,-2.5997,-2.5998,-2.5998,0,0,0,0,0,0,0,0,0,0,0,0,0,-2.5961,-2.5961,-2.5991,-2.5991,-2.5992,-2.6001,-2.6002,-2.6002,-2.599,-2.5989,-2.5989,-2.5988,-2.5997,-2.5998,-2.5998,0,0,0,0,0,0,0,0,0,0,0,0,0,-2.5973,-2.5961,-2.5991,-2.5987,-2.5987,-2.6001,-2.6002,-2.6002,-2.599,-2.5989,-2.5988,-2.5988,-2.5997,-2.5998,-2.5999,-2.6018,0,0,-2.6002,-2.6002,0,0,0,0,0,0,0,0,-2.5972,-2.5974,-2.5987,-2.5987,-2.5987,-2.5994,-2.5994,-2.6007,-2.599,-2.5989,-2.5988,-2.5988,-2.5996,-2.5997,-2.6001,-2.6018,-2.6019,-2.6002,-2.6002,-2.6003,-2.6003,0,0,0,0,0,0,0,-2.5971,-2.5973,-2.5995,-2.5988,-2.5987,-2.5984,-2.5985,-2.5996,-2.5996,-2.5989,-2.5988,-2.5989,-2.5996,-2.6,-2.6001,-2.6019,-2.6002,-2.6002,-2.6003,-2.6003,-2.6054,-2.6055,0,0,0,0,0,0,-2.5971,-2.5973,-2.5995,-2.5996,-2.5978,-2.5985,-2.5986,-2.5992,-2.5996,-2.5996,-2.599,-2.5989,-2.5998,-2.6,-2.6001,-2.6025,-2.6003,-2.6004,-2.6004,-2.6053,-2.6054,-2.6055,0,0,0,0,0,0,-2.597,-2.5973,-2.5995,-2.5984,-2.5986,-2.5986,-2.5993,-2.5993,-2.5996,-2.5997,-2.5996,-2.5994,-2.5998,-2.6,-2.6014,-2.6025,-2.6004,-2.6005,-2.6052,-2.6053,-2.6054,-2.6073,0,0,0,0,0,0,-2.5969,-2.5973,-2.598,-2.5984,-2.5987,-2.6008,-2.5994,-2.5993,-2.5998,-2.5997,-2.6,-2.6,-2.5998,-2.6013,-2.6015,-2.6026,-2.6006,-2.6051,-2.6053,-2.6054,-2.6071,-2.6074,-2.6077,0,0,0,0,0,-2.5968,-2.5985,-2.5981,-2.5984,-2.5997,-2.6009,-2.601,-2.6007,-2.5999,-2.6007,-2.6007,-2.6,-2.6023,-2.6014,-2.6017,-2.6028,-2.6051,-2.6052,-2.6054,-2.607,-2.6074,-2.6077,0,0,0,0,0,0,-2.5981,-2.5985,-2.5981,-2.5999,-2.6004,-2.6007,-2.6016,-2.6011,-2.6018,-2.6016,-2.6012,-2.6012,-2.6028,-2.6029,-2.6019,-2.6048,-2.6036,-2.6038,-2.6047,-2.605,-2.6053,-2.6053,-2.6006,0,0,0,0,0,-2.5986,-2.5996,-2.5999,-2.6014,-2.6017,-2.6016,-2.6021,-2.6018,-2.6023,-2.6025,-2.6026,-2.603,-2.6039,-2.6044,-2.6052,-2.6071,-2.6072,-2.608,-2.6083,-2.6085,-2.6088,-2.6099,-2.6103,-2.6061,-2.606,-2.606,0,0,-2.5997,-2.6,-2.6006,-2.6017,-2.602,-2.6031,-2.6018,-2.6029,-2.6037,-2.6026,-2.6041,-2.6042,-2.6046,-2.6063,-2.6071,-2.6065,-2.61,-2.6087,-2.6089,-2.6091,-2.6101,-2.6105,-2.6109,-2.6062,-2.6061,-2.6061,0,0,-2.6021,-2.6024,-2.6038,-2.6042,-2.6048,-2.6047,-2.6051,-2.6054,-2.6055,-2.607,-2.6062,-2.6071,-2.6085,-2.6089,-2.6093,-2.612,-2.6114,-2.6122,-2.6138,-2.6149,-2.6152,-2.6155,-2.6166,-2.617,-2.6124,-2.6124,-2.6124,0,-2.6033,-2.6049,-2.6046,-2.6058,-2.6063,-2.6055,-2.6069,-2.6073,-2.608,-2.6084,-2.6077,-2.6096,-2.6098,-2.6117,-2.6123,-2.6126,-2.613,-2.6122,-2.6152,-2.6155,-2.6158,-2.6168,-2.6172,-2.6125,-2.6125,-2.6125,-2.6125,0,-2.6064,-2.6075,-2.6086,-2.6095,-2.6101,-2.6114,-2.6113,-2.6119,-2.6116,-2.6116,-2.6131,-2.6134,-2.6142,-2.6146,-2.6142,-2.6165,-2.6161,-2.6153,-2.6141,-2.6163,-2.6173,-2.6177,-2.6127,-2.6126,-2.6126,-2.6126,0,0,-2.6098,-2.6105,-2.6109,-2.6114,-2.6119,-2.6128,-2.614,-2.615,-2.6156,-2.6161,-2.6172,-2.6185,-2.6178,-2.6182,-2.6179,-2.6189,-2.6211,-2.618,-2.618,-2.6187,-2.6237,-2.6244,-2.6249,-2.6207,-2.6208,-2.6208,-2.6237,0,-2.6123,-2.6147,-2.6144,-2.6167,-2.6177,-2.617,-2.6181,-2.6186,-2.6186,-2.6195,-2.6195,-2.6205,-2.6194,-2.6197,-2.6206,-2.6207,-2.6222,-2.6204,-2.6218,-2.6219,-2.6219,-2.6254,-2.6261,-2.6288,-2.6241,-2.6242,-2.6242,0,-2.6157,-2.6165,-2.6189,-2.6194,-2.6198,-2.6209,-2.6217,-2.6226,-2.6231,-2.6231,-2.6236,-2.6231,-2.6244,-2.6231,-2.6249,-2.6238,-2.6243,-2.6244,-2.6245,-2.6247,-2.6233,-2.6258,-2.6297,-2.6301,-2.6248,-2.6247,-2.6247,0,-2.6181,-2.6197,-2.6214,-2.6218,-2.6224,-2.6232,-2.6234,-2.6239,-2.6245,-2.6252,-2.6256,-2.6264,-2.6269,-2.6276,-2.6273,-2.6264,-2.6292,-2.6279,-2.6293,-2.6293,-2.6301,-2.6301,-2.6342,-2.6301,-2.6301,-2.6301,-2.6301,0,-2.6211,-2.6226,-2.6225,-2.6236,-2.6252,-2.6249,-2.6266,-2.6267,-2.6272,-2.6282,-2.6275,-2.6285,-2.6281,-2.629,-2.6288,-2.6304,-2.6306,-2.6306,-2.6306,-2.6308,-2.6308,-2.6312,-2.6311,-2.6302,-2.6302,-2.6302,-2.6302,0,-2.6241,-2.6241,-2.6259,-2.6264,-2.6265,-2.6278,-2.6281,-2.6291,-2.6291,-2.6305,-2.6308,-2.6307,-2.6318,-2.6316,-2.6328,-2.6327,-2.6348,-2.6344,-2.6346,-2.6346,-2.6361,-2.6361,-2.6408,-2.6415,-2.6368,-2.6369,-2.6369,0,-2.6261,-2.6273,-2.6279,-2.6287,-2.629,-2.6301,-2.6308,-2.6305,-2.6312,-2.6319,-2.6328,-2.6339,-2.6347,-2.6365,-2.6366,-2.6375,-2.6372,-2.6388,-2.6374,-2.6376,-2.6375,-2.6375,-2.6376,-2.6392,-2.6392,-2.6393,-2.6393,0,-2.6297,-2.6297,-2.6307,-2.6317,-2.6326,-2.6333,-2.634,-2.6346,-2.6344,-2.6352,-2.6364,-2.637,-2.6383,-2.6394,-2.6402,-2.6405,-2.6399,-2.6398,-2.6402,-2.6405,-2.6406,-2.6407,-2.6356,-2.6397,-2.6396,-2.6396,-2.6396,-2.6396,-2.6324,-2.6335,-2.6342,-2.6353,-2.6358,-2.6365,-2.6375,-2.6377,-2.6387,-2.6398,-2.6395,-2.6408,-2.6414,-2.6425,-2.6428,-2.6439,-2.6433,-2.6438,-2.644,-2.6442,-2.6445,-2.6403,-2.644,-2.644,-2.644,-2.644,-2.644,0,-2.6362,-2.6366,-2.6376,-2.6387,-2.6396,-2.639,-2.6398,-2.6406,-2.6418,-2.6424,-2.6433,-2.6447,-2.6457,-2.6459,-2.6469,-2.6477,-2.6475,-2.648,-2.648,-2.6481,-2.6448,-2.6445,-2.6482,-2.6482,-2.6482,-2.6482,-2.6482,-2.6482,-2.6382,-2.6401,-2.6401,-2.6422,-2.6425,-2.6439,-2.6444,-2.6451,-2.6456,-2.6472,-2.6481,-2.6482,-2.6486,-2.6497,-2.6506,-2.6506,-2.6511,-2.6518,-2.6517,-2.6487,-2.6483,-2.6479,-2.6476,-2.6519,-2.6519,-2.6549,-2.6549,-2.655]}]]